Fort Worth Alliance, TX

9:54 AM CDT on September 21, 2017 (GMT -0500)
Fort Worth Alliance

Weather History for KAFW - February, 2013

Change the Weather History Date:

Sunday, February 17, 2013

  Actual Average Record
Temperature  
Mean Temperature 54 °F -  
Max Temperature 72 °F 59 °F 80 °F (2011)
Min Temperature 37 °F 38 °F 25 °F (2003)
Degree Days  
Heating Degree Days 10    
Growing Degree Days 4 (Base 50)    
Moisture  
Dew Point 31 °F    
Average Humidity 45    
Maximum Humidity 76    
Minimum Humidity 18    
Precipitation  
Precipitation 0.00 in - - ()
Sea Level Pressure  
Sea Level Pressure 30.00 in    
Wind  
Wind Speed 8 mph (South)    
Max Wind Speed 20 mph    
Max Gust Speed 31 mph    
Visibility 10 miles    
Events      
Averages and records for this station are not official NWS values.
T = Trace of Precipitation, MM = Missing Value Source: NWS Daily Summary

Daily Weather History Graph

Daily Weather History Graph

Search for Another Location

Airport or City:

Trip Planner

Search our weather history database for the weather conditions in past years. The results will help you decide how hot, cold, wet, or windy it might be!

Date:

Astronomy

Feb. 17, 2013 Rise Set
Actual Time 7:10 AM CST 6:16 PM CST
Civil Twilight 6:45 AM CST 6:41 PM CST
Nautical Twilight 6:16 AM CST 7:10 PM CST
Astronomical Twilight 5:47 AM CST 7:39 PM CST
Moon 11:29 AM CST (2/17) 12:49 AM CST (2/17)
Length of Visible Light 11h 56m
Length of Day
11h 06m
Waxing Crescent, 49% of the Moon is Illuminated
Feb 17
Waxing Crescent
Feb 17
First Quarter
Feb 25
Full
Mar 4
Last Quarter
Mar 11
New

Hourly Weather History & Observations

Time (CST) Temp. Windchill Dew Point Humidity Pressure Visibility Wind Dir Wind Speed Gust Speed Precip Events Conditions
12:53 AM 43.0 °F 41.3 °F 28.0 °F 56% 30.14 in 10.0 mi South 3.5 mph - N/A   Clear
1:53 AM 43.0 °F - 28.9 °F 58% 30.14 in 10.0 mi Calm Calm - N/A   Clear
2:53 AM 41.0 °F - 28.9 °F 62% 30.12 in 10.0 mi Calm Calm - N/A   Clear
3:53 AM 37.9 °F 34.4 °F 30.0 °F 73% 30.10 in 10.0 mi South 4.6 mph - N/A   Clear
4:53 AM 37.0 °F 34.5 °F 30.0 °F 76% 30.09 in 10.0 mi South 3.5 mph - N/A   Clear
5:53 AM 37.0 °F 34.5 °F 30.0 °F 76% 30.09 in 10.0 mi South 3.5 mph - N/A   Clear
6:53 AM 37.9 °F - 30.0 °F 73% 30.09 in 10.0 mi Calm Calm - N/A   Clear
7:53 AM 41.0 °F 34.7 °F 32.0 °F 70% 30.09 in 10.0 mi South 10.4 mph 16.1 mph N/A   Clear
8:53 AM 48.9 °F - 33.1 °F 54% 30.10 in 10.0 mi SSW 5.8 mph - N/A   Clear
9:53 AM 57.9 °F - 32.0 °F 37% 30.08 in 10.0 mi SSW 9.2 mph - N/A   Clear
10:53 AM 64.0 °F - 30.0 °F 28% 30.06 in 10.0 mi SSW 12.7 mph 21.9 mph N/A   Clear
11:53 AM 68.0 °F - 30.0 °F 24% 30.04 in 10.0 mi South 15.0 mph 21.9 mph N/A   Clear
12:53 PM 70.0 °F - 28.9 °F 22% 29.99 in 10.0 mi South 17.3 mph 26.5 mph N/A   Clear
1:53 PM 72.0 °F - 28.0 °F 20% 29.94 in 10.0 mi South 15.0 mph 26.5 mph N/A   Clear
2:53 PM 72.0 °F - 27.0 °F 19% 29.91 in 10.0 mi South 17.3 mph 25.3 mph N/A   Clear
3:53 PM 72.0 °F - 26.1 °F 18% 29.89 in 10.0 mi South 19.6 mph 31.1 mph N/A   Clear
4:53 PM 69.1 °F - 28.9 °F 22% 29.88 in 10.0 mi South 18.4 mph 28.8 mph N/A   Clear
5:53 PM 64.9 °F - 30.0 °F 27% 29.88 in 10.0 mi South 18.4 mph 25.3 mph N/A   Clear
6:53 PM 63.0 °F - 30.9 °F 30% 29.89 in 10.0 mi South 16.1 mph 24.2 mph N/A   Clear
7:53 PM 60.1 °F - 33.1 °F 36% 29.89 in 10.0 mi South 13.8 mph - N/A   Clear
8:53 PM 59.0 °F - 34.0 °F 39% 29.89 in 10.0 mi South 10.4 mph 20.7 mph N/A   Clear
9:53 PM 57.0 °F - 37.0 °F 47% 29.88 in 10.0 mi South 15.0 mph - N/A   Clear
11:53 PM 57.0 °F - 44.1 °F 62% 29.86 in 10.0 mi South 16.1 mph 27.6 mph N/A   Clear